Find Sunsat-OSCAR-35

NORAD ID: 25636 Int'l Des: 1999-008 Owner: STBO Country: ZA operational
LEORETROGRADE

現在のビュー

3D地球を読み込み中...

About Sunsat-OSCAR-35

Sunsat-OSCAR-35 (NORAD 25636) is a satellite launched Feb 23, 1999 by STBO of ZA. It operates in LEO, RETROGRADE orbit with a mass of 60.00 kg.

次回通過

Passes for default location (London). Set your location on the main map for personalized predictions.

高度履歴

Loading altitude history...

軌道要素

1 25636U 99008C 26195.16963017 .00000090 00000-0 30322-4 0 9997
2 25636 96.4666 65.5940 0140194 242.0251 116.6700 14.46481766443138
Epoch: Jul 14, 2026 • Age: 11 hours

現在のステータス

高度 660.4 km
遠地点 / 近地点 N/A
速度 7.58 km/s
衛星直下点 -59.50°S, 75.24°E
打ち上げ日 Feb 23, 1999
運用期間 27.3 years
タイプ other

技術仕様

分類 Payload
質量 60.00 kg
乾燥質量 60.00 kg
総質量 60.00 kg
長さ 0.60 m
直径 0.50 m
スパン 2.80 m
形状 Box + Ant
製造者 STBO
バスタイプ Sunsat
フェーズステータス In Orbit
所有者/国 STBO/ZA

Most Searched